| time (UTC) | temp C | wind direction | speed KPH | gust KPH | rain 1hr cm | rain 24hr cm | rain mn cm | humidity % | barometer mb |
| 20260906104626 | 21 | 0 | 0.0 | 0.0 | 0.00 | 1.55 | 0.03 | 100 | 1013.6 |
| 20260906103101 | 21 | 0 | 0.0 | 0.0 | 0.00 | 1.55 | 0.03 | 100 | 1013.7 |
| 20260906101559 | 21 | 0 | 0.0 | 0.0 | 0.00 | 1.55 | 0.03 | 100 | 1013.5 |
| 20260906100057 | 21 | 0 | 0.0 | 0.0 | 0.00 | 1.55 | 0.03 | 100 | 1013.5 |
| 20260906094641 | 21 | 0 | 0.0 | 0.0 | 0.00 | 1.55 | 0.03 | 100 | 1013.6 |
| 20260906093109 | 21 | 0 | 0.0 | 0.0 | 0.00 | 1.55 | 0.03 | 100 | 1013.7 |
| 20260906091613 | 20 | 0 | 0.0 | 0.0 | 0.00 | 1.55 | 0.03 | 100 | 1013.6 |
| 20260906090100 | 21 | 0 | 0.0 | 0.0 | 0.00 | 1.55 | 0.03 | 100 | 1013.7 |
| 20260906084553 | 21 | 0 | 0.0 | 0.0 | 0.00 | 1.55 | 0.03 | 100 | 1013.7 |
| 20260906083102 | 21 | 0 | 0.0 | 0.0 | 0.00 | 1.55 | 0.03 | 100 | 1013.7 |
| 20260906081603 | 21 | 0 | 0.0 | 0.0 | 0.00 | 1.55 | 0.03 | 100 | 1013.5 |
| 20260906074604 | 21 | 0 | 0.0 | 0.0 | 0.00 | 1.55 | 0.03 | 100 | 1013.6 |
| 20260906073103 | 21 | 0 | 0.0 | 0.0 | 0.00 | 1.55 | 0.03 | 100 | 1013.6 |
| 20260906071601 | 21 | 0 | 0.0 | 0.0 | 0.00 | 1.55 | 0.03 | 100 | 1013.6 |
| 20260906070101 | 21 | 0 | 0.0 | 0.0 | 0.00 | 1.55 | 0.03 | 100 | 1013.8 |
| 20260906064555 | 21 | 0 | 0.0 | 1.6 | 0.00 | 1.55 | 0.03 | 100 | 1013.9 |
| 20260906063101 | 21 | 0 | 0.0 | 0.0 | 0.03 | 1.55 | 0.03 | 100 | 1013.7 |
| 20260906061602 | 21 | 0 | 0.0 | 1.6 | 0.03 | 1.55 | 0.03 | 100 | 1014.0 |
| 20260906060104 | 21 | 0 | 0.0 | 0.0 | 0.03 | 1.55 | 0.03 | 100 | 1014.2 |
| 20260906054604 | 21 | 0 | 0.0 | 1.6 | 0.03 | 1.55 | 0.03 | 100 | 1014.2 |
| 20260906053107 | 21 | 0 | 0.0 | 0.0 | 0.00 | 1.52 | 0.00 | 100 | 1014.5 |
| 20260906051600 | 21 | 0 | 0.0 | 1.6 | 0.00 | 1.52 | 0.00 | 100 | 1014.7 |
| 20260906050125 | 21 | 0 | 0.0 | 0.0 | 0.00 | 1.52 | 0.00 | 100 | 1014.7 |
| 20260906044556 | 21 | 0 | 0.0 | 1.6 | 0.00 | 1.52 | 0.00 | 100 | 1014.7 |
| 20260906043102 | 21 | 0 | 0.0 | 1.6 | 0.00 | 1.52 | 0.00 | 100 | 1014.5 |
| 20260906041600 | 21 | 0 | 0.0 | 1.6 | 0.00 | 1.52 | 0.00 | 100 | 1014.6 |
| 20260906040139 | 21 | 0 | 0.0 | 1.6 | 0.00 | 1.52 | 0.00 | 100 | 1014.3 |
| 20260906034607 | 21 | 165 | 0.0 | 1.6 | 0.00 | 1.52 | 1.52 | 100 | 1014.6 |
| 20260906033104 | 21 | 0 | 0.0 | 0.0 | 0.00 | 1.52 | 1.52 | 100 | 1014.6 |
| 20260906031603 | 21 | 0 | 0.0 | 0.0 | 0.00 | 1.52 | 1.52 | 100 | 1014.7 |
| 20260906030109 | 21 | 0 | 0.0 | 0.0 | 0.00 | 1.52 | 1.52 | 100 | 1014.8 |
| 20260906024604 | 21 | 0 | 0.0 | 1.6 | 0.00 | 1.52 | 1.52 | 100 | 1014.9 |
| 20260906023103 | 21 | 0 | 0.0 | 0.0 | 0.00 | 1.52 | 1.52 | 100 | 1015.0 |
| 20260906021608 | 21 | 165 | 0.0 | 1.6 | 0.00 | 1.52 | 1.52 | 100 | 1015.1 |
| 20260906020107 | 21 | 0 | 0.0 | 1.6 | 0.00 | 1.52 | 1.52 | 100 | 1015.2 |
| 20260906014600 | 21 | 0 | 0.0 | 0.0 | 0.00 | 1.52 | 1.52 | 100 | 1015.1 |
| 20260906013103 | 21 | 0 | 0.0 | 1.6 | 0.00 | 1.52 | 1.52 | 100 | 1014.6 |
| 20260906011604 | 21 | 165 | 0.0 | 1.6 | 0.00 | 1.52 | 1.52 | 100 | 1014.6 |
| 20260906010109 | 21 | 0 | 0.0 | 3.2 | 0.00 | 1.52 | 1.52 | 100 | 1014.4 |
| 20260906004608 | 21 | 0 | 0.0 | 3.2 | 0.00 | 1.52 | 1.52 | 100 | 1014.5 |
| 20260906003105 | 21 | 0 | 0.0 | 0.0 | 0.00 | 1.52 | 1.52 | 100 | 1014.0 |
| 20260906001615 | 21 | 0 | 0.0 | 0.0 | 0.00 | 1.52 | 1.52 | 100 | 1013.5 |
| 20260905234606 | 21 | 0 | 0.0 | 3.2 | 0.00 | 1.52 | 1.52 | 100 | 1013.5 |
| 20260905233113 | 21 | 0 | 0.0 | 11.3 | 0.00 | 1.52 | 1.52 | 100 | 1013.3 |
| 20260905231603 | 21 | 0 | 0.0 | 3.2 | 0.00 | 1.52 | 1.52 | 100 | 1013.6 |
| 20260905230115 | 21 | 0 | 0.0 | 3.2 | 0.03 | 1.52 | 1.52 | 100 | 1013.4 |
| 20260905224610 | 21 | 0 | 0.0 | 3.2 | 0.08 | 1.52 | 1.52 | 99 | 1013.0 |
| 20260905223103 | 21 | 315 | 0.0 | 3.2 | 0.43 | 1.52 | 1.52 | 99 | 1012.8 |
| 20260905221602 | 21 | 0 | 0.0 | 4.8 | 1.24 | 1.52 | 1.52 | 99 | 1013.2 |
| 20260905220103 | 21 | 0 | 0.0 | 4.8 | 1.24 | 1.47 | 1.47 | 98 | 1013.8 |
| 20260905214601 | 21 | 0 | 3.2 | 11.3 | 1.19 | 1.45 | 1.45 | 95 | 1014.4 |
| 20260905213109 | 21 | 119 | 8.0 | 30.6 | 0.79 | 1.04 | 1.04 | 92 | 1014.3 |
| 20260905211601 | 25 | 40 | 11.3 | 32.2 | 0.25 | 0.25 | 0.25 | 83 | 1013.4 |
| 20260905210109 | 29 | 10 | 0.0 | 3.2 | 0.25 | 0.25 | 0.25 | 93 | 1012.7 |
| 20260905204605 | 28 | 0 | 0.0 | 0.0 | 0.25 | 0.25 | 0.25 | 95 | 1012.3 |
| 20260905203101 | 30 | 0 | 0.0 | 4.8 | 0.25 | 0.25 | 0.25 | 88 | 1012.7 |
| 20260905201608 | 34 | 0 | 0.0 | 0.0 | 0.00 | 0.00 | 0.00 | 67 | 1012.9 |
| 20260905200147 | 35 | 0 | 0.0 | 3.2 | 0.00 | 0.00 | 0.00 | 59 | 1012.8 |
| 20260905194616 | 35 | 0 | 0.0 | 3.2 | 0.00 | 0.00 | 0.00 | 61 | 1012.9 |
| 20260905193100 | 36 | 0 | 0.0 | 4.8 | 0.00 | 0.00 | 0.00 | 53 | 1012.9 |
| 20260905191558 | 38 | 57 | 0.0 | 4.8 | 0.00 | 0.00 | 0.00 | 48 | 1013.2 |
| 20260905190107 | 37 | 136 | 0.0 | 6.4 | 0.00 | 0.00 | 0.00 | 50 | 1013.4 |
| 20260905184612 | 37 | 175 | 1.6 | 8.0 | 0.00 | 0.00 | 0.00 | 49 | 1013.7 |
| 20260905183109 | 37 | 268 | 3.2 | 12.9 | 0.00 | 0.00 | 0.00 | 51 | 1013.6 |
| 20260905181559 | 35 | 140 | 1.6 | 8.0 | 0.00 | 0.00 | 0.00 | 55 | 1013.8 |
| 20260905180112 | 34 | 247 | 1.6 | 6.4 | 0.00 | 0.00 | 0.00 | 57 | 1014.1 |
| 20260905174606 | 35 | 0 | 3.2 | 9.7 | 0.00 | 0.00 | 0.00 | 57 | 1014.3 |
| 20260905173101 | 35 | 44 | 1.6 | 8.0 | 0.00 | 0.00 | 0.00 | 58 | 1014.3 |
| 20260905171606 | 34 | 10 | 1.6 | 6.4 | 0.00 | 0.00 | 0.00 | 59 | 1014.7 |
| 20260905170059 | 34 | 314 | 1.6 | 4.8 | 0.00 | 0.00 | 0.00 | 63 | 1014.7 |
| 20260905164605 | 33 | 169 | 0.0 | 6.4 | 0.00 | 0.00 | 0.00 | 62 | 1015.0 |
| 20260905163102 | 33 | 0 | 1.6 | 4.8 | 0.00 | 0.00 | 0.00 | 66 | 1015.3 |
| 20260905161604 | 33 | 0 | 0.0 | 6.4 | 0.00 | 0.00 | 0.00 | 70 | 1015.3 |
| 20260905160056 | 32 | 0 | 0.0 | 4.8 | 0.00 | 0.00 | 0.00 | 69 | 1015.5 |
| 20260905154601 | 32 | 241 | 0.0 | 4.8 | 0.00 | 0.00 | 0.00 | 68 | 1015.6 |
| 20260905153102 | 31 | 0 | 1.6 | 6.4 | 0.00 | 0.00 | 0.00 | 71 | 1015.6 |
| 20260905151559 | 31 | 257 | 0.0 | 8.0 | 0.00 | 0.00 | 0.00 | 72 | 1016.0 |
| 20260905150100 | 30 | 246 | 1.6 | 4.8 | 0.00 | 0.00 | 0.00 | 73 | 1016.1 |
| 20260905144606 | 30 | 0 | 1.6 | 6.4 | 0.00 | 0.00 | 0.00 | 78 | 1016.1 |
| 20260905143105 | 29 | 176 | 1.6 | 8.0 | 0.00 | 0.00 | 0.00 | 82 | 1016.1 |
| 20260905141605 | 28 | 0 | 0.0 | 4.8 | 0.00 | 0.00 | 0.00 | 85 | 1016.2 |
| 20260905134615 | 25 | 0 | 0.0 | 3.2 | 0.00 | 0.00 | 0.00 | 98 | 1016.4 |
| 20260905133100 | 24 | 0 | 0.0 | 3.2 | 0.00 | 0.00 | 0.00 | 100 | 1016.4 |
| 20260905131603 | 23 | 0 | 0.0 | 3.2 | 0.00 | 0.00 | 0.00 | 100 | 1016.5 |
| 20260905130105 | 22 | 0 | 0.0 | 0.0 | 0.00 | 0.00 | 0.00 | 100 | 1016.6 |
| 20260905124604 | 22 | 0 | 0.0 | 0.0 | 0.00 | 0.00 | 0.00 | 100 | 1016.6 |
| 20260905123107 | 21 | 0 | 0.0 | 0.0 | 0.00 | 0.00 | 0.00 | 100 | 1016.6 |
| 20260905121603 | 21 | 0 | 0.0 | 0.0 | 0.00 | 0.00 | 0.00 | 100 | 1016.4 |
| 20260905114612 | 21 | 0 | 0.0 | 0.0 | 0.00 | 0.00 | 0.00 | 100 | 1016.1 |
| 20260905113058 | 21 | 0 | 0.0 | 0.0 | 0.00 | 0.00 | 0.00 | 100 | 1015.9 |
| 20260905111607 | 21 | 0 | 0.0 | 1.6 | 0.00 | 0.00 | 0.00 | 100 | 1015.9 |
| 20260905110104 | 21 | 0 | 0.0 | 1.6 | 0.00 | 0.00 | 0.00 | 100 | 1015.7 |